This is the latest recevied weather packets stored in our database for station/object YF9UAG-17. If no packets are shown the sender has not sent any weather packets the latest 10 day(s).
| Time | Temp. | Humidity | Pressure | Rain* | Wind** | Luminosity | Snow |
|---|---|---|---|---|---|---|---|
| 1788097737 | 31.67° C | 49% | 1033.7 hPa | - | - | - | - |
| 1788097135 | 31.67° C | 49% | 1033.6 hPa | - | - | - | - |
| 1788096532 | 31.11° C | 50% | 1033.4 hPa | - | - | - | - |
| 1788095930 | 30.56° C | 51% | 1033.4 hPa | - | - | - | - |
| 1788095328 | 30.56° C | 51% | 1033.3 hPa | - | - | - | - |
| 1788094726 | 31.11° C | 50% | 1033.2 hPa | - | - | - | - |
| 1788094123 | 31.11° C | 50% | 1033.1 hPa | - | - | - | - |
| 1788093521 | 31.11° C | 50% | 1032.9 hPa | - | - | - | - |
| 1788092918 | 31.11° C | 50% | 1032.8 hPa | - | - | - | - |
| 1788092316 | 31.11° C | 50% | 1032.6 hPa | - | - | - | - |
| 1788091713 | 31.11° C | 50% | 1032.5 hPa | - | - | - | - |
| 1788091111 | 31.11° C | 50% | 1032.4 hPa | - | - | - | - |
| 1788090508 | 31.11° C | 50% | 1032.2 hPa | - | - | - | - |
| 1788089906 | 31.67° C | 49% | 1031.9 hPa | - | - | - | - |
| 1788089304 | 31.67° C | 50% | 1031.7 hPa | - | - | - | - |
| 1788088703 | 31.67° C | 52% | 1031.7 hPa | - | - | - | - |
| 1788088100 | 31.11° C | 53% | 1031.6 hPa | - | - | - | - |
| 1788087498 | 31.67° C | 54% | 1031.6 hPa | - | - | - | - |
| 1788086894 | 31.11° C | 53% | 1031.4 hPa | - | - | - | - |
| 1788086292 | 30.56° C | 52% | 1031.3 hPa | - | - | - | - |
| 1788085690 | 31.11° C | 53% | 1031.1 hPa | - | - | - | - |
| 1788085087 | 31.11° C | 53% | 1031 hPa | - | - | - | - |
| 1788084485 | 31.67° C | 52% | 1030.9 hPa | - | - | - | - |
| 1788083883 | 31.67° C | 52% | 1030.7 hPa | - | - | - | - |
| 1788083281 | 32.22° C | 52% | 1030.8 hPa | - | - | - | - |
* Rain since midnight (hover to see other rain measurements)
** Current wind speed in m/s (hover to see current wind gust speed)